[Iaude] MPEC B16: 2024 AV4 [a=1.76,e=0.53,i=14.5,H=25.4]
    mpec at marsden.cfa.harvard.edu 
    mpec at marsden.cfa.harvard.edu
       
    Tue Jan 16 19:07:32 EST 2024
    
    
  
M.P.E.C. 2024-B16                              Issued 2024 January 17, 00:05 UT
     The Minor Planet Electronic Circulars contain information on unusual
         minor planets, routine data on comets and natural satellites,
         and occasional editorial announcements.  They are published
    on behalf of Division F of the International Astronomical Union by the
          Minor Planet Center, Smithsonian Astrophysical Observatory,
                          Cambridge, MA 02138, U.S.A.
			  
             Prepared using the Tamkin Foundation Computer Network
                              MPC at CFA.HARVARD.EDU
            URL https://www.minorplanetcenter.net/    ISSN 1523-6714
                                    2024 AV4                                    
Observations:
     K24A04V*1C2024 01 15.36115210 14 08.066+15 36 19.84         18.98GVEB016703
     K24A04V 1C2024 01 15.36347510 14 11.591+15 34 42.74         19.39GVEB016703
     K24A04V 1C2024 01 15.36579210 14 14.935+15 33 06.19         18.97GVEB016703
     K24A04V 1C2024 01 15.36811310 14 18.452+15 31 29.35               VEB016703
     K24A04V mC2024 01 15.41647410 15 29.790+14 57 34.50         20.12GVEB016V06
     K24A04V mC2024 01 15.41661810 15 30.000+14 57 28.00         19.36GVEB016V06
     K24A04V mC2024 01 15.41676510 15 30.220+14 57 22.00         19.10GVEB016V06
     K24A04V mC2024 01 15.41691110 15 30.440+14 57 15.60         19.09GVEB016V06
     K24A04V KC2024 01 15.46185310 16 37.650+14 25 01.52         18.92GVEB016V06
     K24A04V KC2024 01 15.46229110 16 38.320+14 24 42.26         18.91GVEB016V06
     K24A04V KC2024 01 15.46272810 16 38.975+14 24 23.29         18.82GVEB016V06
     K24A04V KC2024 01 15.46316610 16 39.626+14 24 04.32         18.99GVEB016V06
     K24A04V KC2024 01 15.51512810 17 58.985+13 45 56.16         18.50GVEB016V06
     K24A04V KC2024 01 15.51556810 17 59.662+13 45 36.40         18.56GVEB016V06
     K24A04V KC2024 01 15.51600910 18 00.367+13 45 17.24         18.70GVEB016V06
     K24A04V KC2024 01 15.51644710 18 01.037+13 44 57.55         18.84GVEB016V06
     K24A04V  C2024 01 15.98466 10 32 02.46 +07 30 19.0          19.9 GVEB016M28
     K24A04V  C2024 01 15.98687 10 32 06.36 +07 28 20.5          18.7 GVEB016M28
     K24A04V  C2024 01 15.98891 10 32 09.89 +07 26 34.6          19.5 GVEB016M28
     K24A04V hC2024 01 16.02159410 33 11.671+06 49 49.15               VEB016J95
     K24A04V KC2024 01 16.03222710 33 31.150+06 40 13.87         18.4 GVEB016J95
     K24A04V KC2024 01 16.03966210 33 44.736+06 33 30.60         18.4 GVEB016J95
     K24A04V KC2024 01 16.04750110 33 59.129+06 26 24.68         18.7 GVEB016J95
     K24A04V KB2024 01 16.06062810 34 21.21 +06 14 53.0          19.1 GVEB016204
     K24A04V HB2024 01 16.06611910 34 31.23 +06 09 52.0                VEB016204
     K24A04V KB2024 01 16.07220510 34 42.36 +06 04 17.4                VEB016204
     K24A04V KC2024 01 16.11565910 36 00.84 +05 24 10.3          18.4 GVEB016L01
     K24A04V KC2024 01 16.11670510 36 02.78 +05 23 11.6          18.3 GVEB016L01
     K24A04V KC2024 01 16.11774910 36 04.72 +05 22 12.9          18.3 GVEB016L01
     K24A04V KC2024 01 16.11879110 36 06.64 +05 21 14.5          18.2 GVEB016L01
     K24A04V KC2024 01 16.11983210 36 08.58 +05 20 16.4          18.1 GVEB016L01
     K24A04V 1C2024 01 16.21473 10 39 09.77 +03 49 47.1          19.6 VXEB016033
     K24A04V 1C2024 01 16.21495 10 39 10.17 +03 49 34.1          19.6 VXEB016033
     K24A04V 1C2024 01 16.21517 10 39 10.60 +03 49 21.4          18.8 VXEB016033
     K24A04V |C2024 01 16.25718010 40 53.950+03 16 10.70         18.8 GVEB016807
     K24A04V |C2024 01 16.25820010 40 55.910+03 15 10.90         18.4 GVEB016807
     K24A04V |C2024 01 16.25922010 40 57.870+03 14 11.10         18.8 GVEB016807
     K24A04V |C2024 01 16.26024010 40 59.840+03 13 11.10         18.9 GVEB016807
     K24A04V |C2024 01 16.26127010 41 01.800+03 12 11.60         18.6 GVEB016807
Observer details:
033 Karl Schwarzschild Observatory, Tautenburg.  Observers S. Melnikov, C.
    Hogner, F. Ludwig, M. Hartmann, B. Stecklum.  Measurer B. Stecklum.
    1.34-m f/3 Schmidt + CCD.
204 Schiaparelli Observatory.  Observers L. Buzzi, G. Galli.  0.84-m f/3.5
    reflector + CMO.
703 Catalina Sky Survey.  Observers T. Beuden, A. R. Gibbs.  Measurers T.
    Beuden, V. F. Carvajal, D. Fay, J. B. Fazekas, D. C. Fuls, A. R. Gibbs, A.
    D. Grauer, H. Groeller, J. K. Hogan, R. A. Kowalski, S. M. Larson, G. J.
    Leonard, D. Rankin, R. L. Seaman, F. C. Shelly, K. W. Wierzchos.  0.68-m
    Schmidt + 10K CCD.
807 Cerro Tololo Observatory, La Serena.  Observers T. Linder, R. Holmes.
    0.61-m f/11 Ritchey-Chretien + CCD.
J95 Great Shefford.  Observer P. Birtwhistle.  0.41-m f/6.3 Schmidt-Cassegrain
    + CCD.
L01 Visnjan Observatory, Tican.  Observer K. Korlevic.  1.0-m f/2.9 reflector
    + CCD.
M28 Lesedi Telescope-SAAO Observatory, Sutherland.  Observers N. Erasmus, S.
    Potter, C. van Gend, S. Chandra, H. Worters.  Measurers T. Ngwane, N.
    Erasmus.  1.0-m f/8 Reflector + CCD.
V06 Catalina Sky Survey-Kuiper.  Observer G. J. Leonard.  Measurers T. Beuden,
    V. F. Carvajal, D. Fay, J. B. Fazekas, D. C. Fuls, A. R. Gibbs, A. D.
    Grauer, H. Groeller, J. K. Hogan, R. A. Kowalski, S. M. Larson, G. J.
    Leonard, D. Rankin, R. L. Seaman, F. C. Shelly, K. W. Wierzchos.  1.55-m
    reflector + 1K CCD.
Orbital elements:
2024 AV4                                                 Earth MOID = 0.0109 AU
Epoch 2023 Sept. 13.0 TT = JDT 2460200.5                Veres                   
M 289.42597              (2000.0)            P               Q                  
n   0.42076342     Peri.  240.76195     -0.97324486     -0.04579671             
a   1.7637786      Node   295.81131     +0.15273331     -0.86104551             
e   0.5316370      Incl.   14.48421     -0.17165947     -0.50646153             
P   2.34           H   25.41          G   0.15           U   7                  
Residuals in seconds of arc
240115 703  0.9-  0.8+    240115 V06  0.2-  0.0     240116 L01  0.8-  0.7+
240115 703  0.8+  0.1+    240115 V06  0.2+  0.4+    240116 L01  0.7-  0.5+
240115 703  0.1-  0.2-    240115 V06  0.0   0.3+    240116 L01  0.6-  0.2+
240115 703  1.4+  0.5-    240115 M28  1.8+  1.2-    240116 L01  0.8-  0.1+
240115 V06  0.2+  0.2+    240115 M28  1.5+  2.3-    240116 L01  0.6-  0.3+
240115 V06  0.2+  0.2-    240115 M28  0.1+  0.3+    240116 033  0.3-  0.3+
240115 V06  0.2+  0.1+    240116 J95  0.0   0.3+    240116 033  0.8-  0.0
240115 V06  0.3+  0.1-    240116 J95  0.2+  0.2-    240116 033  0.7-  0.0
240115 V06  0.1-  0.1+    240116 J95  0.4-  0.2-    240116 807  0.1+  0.0
240115 V06  0.0   0.1-    240116 J95  0.2-  0.3+    240116 807  0.1+  0.1-
240115 V06  0.1-  0.1-    240116 204  0.3-  0.1-    240116 807  0.2+  0.1-
240115 V06  0.2-  0.0     240116 204  0.4-  0.1-    240116 807  0.4+  0.3-
240115 V06  0.1-  0.1+    240116 204  0.2-  0.2-    240116 807  0.1+  0.6+
Ephemeris:
2024 AV4                 a,e,i = 1.76, 0.53, 14                  q = 0.8261
Date    TT    R. A. (2000) Decl.     Delta      r    Elong.  Phase     V
2023 12 18    07 52 30.0 +49 13 56   0.2894  1.2285   143.4    28.5    24.4
...
2024 01 02    08 20 33.5 +47 51 14   0.1431  1.1083   148.9    27.3    22.6
...
2024 01 10    08 56 59.1 +41 27 31   0.07120 1.0469   152.2    26.0    21.0
...
2024 01 16    10 32 20.7 +07 13 54   0.02605 1.0032   137.9    41.1    19.1
2024 01 17    11 08 48.7 -10 10 46   0.02269 0.9961   122.5    56.4    19.2
2024 01 18    11 57 00.1 -29 58 29   0.02260 0.9891   103.1    75.7    19.8
...
2024 01 24    17 09 48.9 -62 26 39   0.06189 0.9492    54.0   122.9    24.3
...
2024 02 01    18 44 07.8 -58 53 22   0.1314  0.9023    47.9   125.9    26.1
...
2024 02 16    19 30 44.1 -53 56 23   0.2675  0.8413    50.0   115.8    26.7
M. P. C. Staff               (C) Copyright 2024 MPC           M.P.E.C. 2024-B16
    
    
More information about the Iaude
mailing list